Regional Weather Roundup
Issued by NWS Goodland, KS

Home | Current Version | Previous Version | Graphics & Text | Print | Product List | Glossary On
Versions: 1 2 3 4 5 6 7 8 9 10 11 12 13 14 15 16 17 18 19 20 21 22 23 24 25 26 27 28 29 30 31 32 33 34 35 36 37 38 39 40 41 42 43 44 45 46 47 48 49 50
000
ASUS43 KGLD 241808
RWRGLD

GOODLAND FORECAST AREA HOURLY WEATHER ROUNDUP
NATIONAL WEATHER SERVICE GOODLAND KS
1200 PM MDT THU MAY 24 2018

...OFFICIAL OBSERVATIONS...

CITY           SKY/WX    TMP DP  RH WIND       PRES   REMARKS
GOODLAND KS    SUNNY     83  59  44 MISG      30.00S
HILL CITY KS   MOSUNNY   84  57  39 SW16G26   29.98F
IMPERIAL NEB   SUNNY     81  57  43 VRB5      29.99S
MCCOOK NEB     MOSUNNY   80  62  54 S7        29.96F
AKRON CO       SUNNY     78  50  37 NW9       30.08S
BURLINGTON CO  SUNNY     81  56  42 N8        30.04S
LIMON CO       SUNNY     78  46  32 NE9       30.13S
$$

...UNOFFICIAL OBSERVATIONS...

CITY           SKY/WX    TMP DP  RH WIND       PRES   REMARKS
COLBY KS       MOSUNNY   84  59  42 SW7       29.99F
NORTON KS      SUNNY     90  55  31 S17       29.96
SHARON SPRINGS   N/A     87  57  35 MISG        N/A
KIT CARSON CO    N/A     83  52  33 CALM        N/A
YUMA CO        FAIR      79   0   4 N13G20    30.04S
$$




USA.gov is the U.S. government's official web portal to all federal, state and local government web resources and services.